Location: Bernay
(48.6766°N, 2.9386°E)
Time: 09:22:34
(UTC+00:00)

Meteor 1-21 - Pass Details

Date: 12 January 2026
Orbit: 845 x 885 km, 81.2° (Epoch: 16 February)

Event Time Altitude Azimuth Distance (km) Brightness Sun altitude
Rises 17:52:19 0° 177° (S) 3,407 7.5 -15.3°
Reaches altitude 10° 17:54:46 10° 174° (S) 2,471 6.7 -15.7°
Maximum altitude 18:00:15 59° 96° (E) 975 4.2 -16.6°
Drops below altitude 10° 18:05:45 10° 18° (NNE) 2,478 6.3 -17.5°
Enters shadow 18:07:02 - 16° (NNE) 2,971 6.8 -17.7°
